Regional Weather Roundup
Issued by NWS Cleveland, OH

Home | Current Version | Previous Version | Text Only | Print | Product List | Glossary Off
Versions: 1 2 3 4 5 6 7 8 9 10 11 12 13 14 15 16 17 18 19 20 21 22 23 24 25 26 27 28 29 30 31 32 33 34 35 36 37 38 39 40 41 42 43 44 45 46 47 48 49 50

000
ASUS41 KCLE 010610
RWRCLE
OHIO REGIONAL WEATHER ROUNDUP
NATIONAL WEATHER SERVICE WILMINGTON, OH
200 AM EDT SAT AUG 01 2015

NOTE: "FAIR" INDICATES FEW OR NO CLOUDS BELOW 12,000 FEET WITH NO
SIGNIFICANT WEATHER AND/OR OBSTRUCTIONS TO VISIBILITY.

OHZ001>008-015>018-024>027-034-035-043-044-010700-
   NORTHWEST OHIO

CITY           SKY/WX    TMP DP  RH WIND       PRES   REMARKS
DEFIANCE       CLEAR     64  54  69 CALM      29.95S
FINDLAY        CLEAR     64  56  75 W6        29.94S
TOLEDO EXPRESS CLEAR     65  54  67 W8        29.93S
TOLEDO EXEC    CLEAR     65  53  65 W7        29.93S
LIMA           CLEAR     61  56  83 CALM      29.97S
$$

OHZ009>014-019>023-028>033-038-089-010700-
   NORTHEAST OHIO

CITY           SKY/WX    TMP DP  RH WIND       PRES   REMARKS
CLE-HOPKINS    PTCLDY    65  59  81 SW7       29.92S
CLE-LAKEFRONT  CLEAR     77  60  55 W20       29.87S
CUY CO. ARPT   NOT AVBL
LORAIN-ELYRIA  CLEAR     65  56  72 W7        29.92S
ASHTABULA      CLEAR     67  58  72 W5        29.88S
AKRON-CANTON   PTCLDY    68  59  73 NW8       29.92S
WOOSTER        PTCLDY    64  60  87 W6        29.94S
MANSFIELD      PTCLDY    66  60  81 W6        29.95S
YOUNGSTOWN     PTCLDY    68  59  73 W9        29.90S
$$

OHZ042-051>053-060>062-070>072-077>081-010700-
  SOUTHWEST OHIO

CITY           SKY/WX    TMP DP  RH WIND       PRES   REMARKS
CINC-COVINGTON CLEAR     69  61  75 W3        30.00S
CINC-LUNKEN    CLEAR     69  62  78 SW6       29.99R
HAMILTON       CLEAR     66  61  84 CALM      30.00R
DAYTON         CLEAR     67  60  78 NW8       30.00R
WRIGHT-PAT AFB CLEAR     70  61  73 NW7       29.97R
DAYTON GENERAL CLEAR     70  57  63 NW7       29.98R
WILMINGTON     CLEAR     71  58  63 W9        29.98S
$$

OHZ036-037-039>041-045>050-054>059-063>069-073>076-082>088-010700-
  CENTRAL AND SOUTHEAST OHIO

CITY           SKY/WX    TMP DP  RH WIND       PRES   REMARKS
COLUMBUS       MOCLDY    69  64  84 NW6       29.94S
OSU AIRPORT    CLEAR     67  62  84 W6        29.96R
BOLTON FIELD   CLEAR     68  64  85 NW5       29.96S
RICKENBACK AFB MOCLDY    67  63  84 SW3       29.95R
NEWARK         PTCLDY    66  64  93 CALM      29.94S
MARION         PTCLDY    67  61  81 W6        29.96S
LANCASTER      MOCLDY    66  62  87 CALM      29.95S
ZANESVILLE     MOCLDY    69  63  81 W5        29.94S
NEW PHILLY     CLOUDY    66  61  84 CALM      29.93S
$$


USA.gov is the U.S. government's official web portal to all federal, state and local government web resources and services.